• în România
  • Lista ţărilor
  • Pe 7 zile
  • Temperatura apei
  • Hartă satelitară
  • Meteo pe hartă
  • Widget-uri
  • user-avatar
    Intrare

    Meteo pe oră la Igls

    Astăzi, 23 August, Miercuri

    Timp Temperatura Precipitaţii Vânt Presiune Umiditate
    00:00 +13°C° 0 mm 1 m/s 686 mmHg 95%
    01:00 +13°C° 0 mm 1 m/s 686 mmHg 96%
    02:00 +12°C° 0 mm 1 m/s 686 mmHg 94%
    03:00 +12°C° 0 mm 1 m/s 686 mmHg 92%
    04:00 +12°C° 0 mm 1 m/s 686 mmHg 90%
    05:00 +13°C° 0 mm 1 m/s 686 mmHg 85%
    06:00 +15°C° 0 mm 1 m/s 686 mmHg 80%
    07:00 +16°C° 0 mm 1 m/s 687 mmHg 75%
    08:00 +20°C° 0 mm 1 m/s 687 mmHg 65%
    09:00 +22°C° 0 mm 1 m/s 687 mmHg 55%
    10:00 +25°C° 0 mm 1 m/s 688 mmHg 45%
    11:00 +25°C° 0 mm 1 m/s 688 mmHg 43%
    12:00 +26°C° 0 mm 2 m/s 688 mmHg 42%
    13:00 +26°C° 0 mm 2 m/s 688 mmHg 41%
    14:00 +26°C° 0,2 mm 2 m/s 688 mmHg 42%
    15:00 +26°C° 0,2 mm 2 m/s 687 mmHg 44%
    16:00 +26°C° 0,2 mm 2 m/s 687 mmHg 45%
    17:00 +24°C° 0,2 mm 2 m/s 687 mmHg 57%
    18:00 +21°C° 0,2 mm 1 m/s 687 mmHg 68%
    19:00 +19°C° 0,2 mm 1 m/s 686 mmHg 79%
    20:00 +18°C° 0 mm 1 m/s 687 mmHg 81%
    21:00 +16°C° 0 mm 1 m/s 687 mmHg 82%
    22:00 +15°C° 0 mm 1 m/s 687 mmHg 84%
    23:00 +15°C° 0 mm 1 m/s 687 mmHg 81%

    Mâine, 24 August, Joi

    Timp Temperatura Precipitaţii Vânt Presiune Umiditate
    00:00 +14°C° 0 mm 1 m/s 687 mmHg 79%
    01:00 +14°C° 0 mm 1 m/s 687 mmHg 77%
    02:00 +14°C° 0 mm 1 m/s 687 mmHg 76%
    03:00 +14°C° 0 mm 1 m/s 687 mmHg 74%
    04:00 +14°C° 0 mm 1 m/s 686 mmHg 73%
    05:00 +16°C° 0 mm 1 m/s 687 mmHg 70%
    06:00 +18°C° 0 mm 1 m/s 687 mmHg 67%
    07:00 +20°C° 0 mm 1 m/s 688 mmHg 64%
    08:00 +22°C° 0 mm 1 m/s 688 mmHg 56%
    09:00 +25°C° 0 mm 1 m/s 689 mmHg 49%
    10:00 +27°C° 0 mm 1 m/s 689 mmHg 41%
    11:00 +28°C° 0 mm 1 m/s 689 mmHg 40%
    12:00 +28°C° 0 mm 1 m/s 689 mmHg 38%
    13:00 +29°C° 0 mm 1 m/s 689 mmHg 37%
    14:00 +28°C° 0,1 mm 1 m/s 689 mmHg 41%
    15:00 +27°C° 0,1 mm 1 m/s 688 mmHg 46%
    16:00 +27°C° 0,1 mm 1 m/s 688 mmHg 51%
    17:00 +25°C° 1,4 mm 1 m/s 688 mmHg 62%
    18:00 +22°C° 1,4 mm 1 m/s 688 mmHg 73%
    19:00 +18°C° 1,4 mm 0 m/s 687 mmHg 84%
    20:00 +19°C° 0,2 mm 1 m/s 688 mmHg 85%
    21:00 +19°C° 0,2 mm 1 m/s 688 mmHg 87%
    22:00 +18°C° 0,2 mm 1 m/s 688 mmHg 88%
    23:00 +17°C° 0 mm 2 m/s 688 mmHg 87%

    Poimâine, 25 August, Vineri

    Timp Temperatura Precipitaţii Vânt Presiune Umiditate
    00:00 +16°C° 0 mm 2 m/s 688 mmHg 87%
    01:00 +16°C° 0 mm 2 m/s 688 mmHg 87%
    02:00 +15°C° 0 mm 2 m/s 688 mmHg 87%
    03:00 +15°C° 0 mm 2 m/s 687 mmHg 87%
    04:00 +15°C° 0 mm 2 m/s 687 mmHg 86%
    05:00 +16°C° 0 mm 1 m/s 688 mmHg 83%
    06:00 +18°C° 0 mm 1 m/s 688 mmHg 80%
    07:00 +19°C° 0 mm 1 m/s 688 mmHg 77%
    08:00 +22°C° 0 mm 1 m/s 689 mmHg 66%
    09:00 +25°C° 0 mm 1 m/s 689 mmHg 56%
    10:00 +25°C° 0 mm 0 m/s 690 mmHg 46%
    11:00 +26°C° 0,1 mm 0 m/s 689 mmHg 43%
    12:00 +29°C° 0,1 mm 1 m/s 689 mmHg 40%
    13:00 +30°C° 0,1 mm 1 m/s 689 mmHg 38%
    14:00 +29°C° 0,1 mm 1 m/s 689 mmHg 40%
    15:00 +29°C° 0,1 mm 1 m/s 689 mmHg 42%
    16:00 +28°C° 0,1 mm 1 m/s 688 mmHg 45%
    17:00 +26°C° 0,2 mm 1 m/s 688 mmHg 57%
    18:00 +24°C° 0,2 mm 1 m/s 688 mmHg 69%
    19:00 +19°C° 0,2 mm 0 m/s 688 mmHg 81%
    20:00 +21°C° 0,2 mm 1 m/s 688 mmHg 80%
    21:00 +21°C° 0,2 mm 1 m/s 688 mmHg 80%
    22:00 +19°C° 0,2 mm 2 m/s 688 mmHg 80%
    23:00 +19°C° 0,1 mm 2 m/s 688 mmHg 79%

    26 August, Sâmbătă

    Timp Temperatura Precipitaţii Vânt Presiune Umiditate
    00:00 +19°C° 0,1 mm 2 m/s 688 mmHg 77%
    01:00 +19°C° 0,1 mm 2 m/s 688 mmHg 76%
    02:00 +18°C° 0 mm 2 m/s 688 mmHg 76%
    03:00 +18°C° 0 mm 2 m/s 687 mmHg 76%
    04:00 +19°C° 0 mm 1 m/s 687 mmHg 75%
    05:00 +20°C° 0 mm 1 m/s 688 mmHg 73%
    06:00 +21°C° 0 mm 1 m/s 688 mmHg 71%
    07:00 +22°C° 0 mm 1 m/s 688 mmHg 69%
    08:00 +24°C° 0 mm 1 m/s 688 mmHg 61%
    09:00 +26°C° 0 mm 1 m/s 689 mmHg 53%
    10:00 +28°C° 0 mm 1 m/s 689 mmHg 44%
    11:00 +29°C° 0,1 mm 1 m/s 689 mmHg 42%
    12:00 +30°C° 0,1 mm 1 m/s 689 mmHg 40%
    13:00 +31°C° 0,1 mm 1 m/s 689 mmHg 38%
    14:00 +30°C° 0 mm 1 m/s 688 mmHg 40%
    15:00 +30°C° 0 mm 1 m/s 688 mmHg 42%
    16:00 +29°C° 0 mm 1 m/s 688 mmHg 44%
    17:00 +27°C° 0,2 mm 1 m/s 688 mmHg 54%
    18:00 +25°C° 0,2 mm 1 m/s 688 mmHg 64%
    19:00 +23°C° 0,2 mm 1 m/s 687 mmHg 74%
    20:00 +22°C° 0,3 mm 1 m/s 687 mmHg 74%
    21:00 +21°C° 0,3 mm 1 m/s 687 mmHg 75%
    22:00 +20°C° 0,3 mm 2 m/s 688 mmHg 75%
    23:00 +19°C° 0 mm 2 m/s 687 mmHg 74%

    27 August, Duminică

    Timp Temperatura Precipitaţii Vânt Presiune Umiditate
    00:00 +18°C° 0 mm 2 m/s 687 mmHg 74%
    01:00 +18°C° 0 mm 2 m/s 687 mmHg 73%
    02:00 +18°C° 0,1 mm 1 m/s 687 mmHg 73%
    03:00 +18°C° 0,1 mm 1 m/s 686 mmHg 74%
    04:00 +18°C° 0,1 mm 1 m/s 686 mmHg 74%
    05:00 +19°C° 0 mm 1 m/s 686 mmHg 71%
    06:00 +20°C° 0 mm 1 m/s 687 mmHg 69%
    07:00 +21°C° 0 mm 1 m/s 687 mmHg 67%
    08:00 +24°C° 0 mm 1 m/s 687 mmHg 58%
    09:00 +26°C° 0 mm 1 m/s 688 mmHg 50%
    10:00 +27°C° 0 mm 0 m/s 688 mmHg 41%
    11:00 +30°C° 0 mm 1 m/s 688 mmHg 39%
    12:00 +30°C° 0 mm 1 m/s 688 mmHg 38%
    13:00 +31°C° 0 mm 1 m/s 688 mmHg 37%
    14:00 +30°C° 0,1 mm 1 m/s 687 mmHg 40%
    15:00 +29°C° 0,1 mm 1 m/s 687 mmHg 44%
    16:00 +29°C° 0,1 mm 1 m/s 687 mmHg 48%
    17:00 +27°C° 1 mm 1 m/s 686 mmHg 59%
    18:00 +24°C° 1 mm 1 m/s 686 mmHg 70%
    19:00 +20°C° 1 mm 0 m/s 686 mmHg 81%
    20:00 +20°C° 0,7 mm 0 m/s 686 mmHg 82%
    21:00 +21°C° 0,7 mm 1 m/s 686 mmHg 83%
    22:00 +21°C° 0,7 mm 1 m/s 687 mmHg 83%
    23:00 +20°C° 0,1 mm 1 m/s 686 mmHg 83%

    28 August, Luni

    Timp Temperatura Precipitaţii Vânt Presiune Umiditate
    00:00 +20°C° 0,1 mm 1 m/s 686 mmHg 83%
    01:00 +20°C° 0,1 mm 1 m/s 686 mmHg 83%
    02:00 +19°C° 0,1 mm 1 m/s 686 mmHg 83%
    03:00 +19°C° 0,1 mm 1 m/s 686 mmHg 83%
    04:00 +18°C° 0,1 mm 1 m/s 686 mmHg 83%
    05:00 +19°C° 0,1 mm 1 m/s 687 mmHg 82%
    06:00 +20°C° 0,1 mm 1 m/s 687 mmHg 81%
    07:00 +20°C° 0,1 mm 1 m/s 687 mmHg 81%
    08:00 +22°C° 0 mm 1 m/s 688 mmHg 71%
    09:00 +25°C° 0 mm 1 m/s 688 mmHg 62%
    10:00 +27°C° 0 mm 1 m/s 688 mmHg 52%
    11:00 +27°C° 0,1 mm 2 m/s 688 mmHg 49%
    12:00 +28°C° 0,1 mm 2 m/s 688 mmHg 45%
    13:00 +29°C° 0,1 mm 2 m/s 688 mmHg 41%
    14:00 +29°C° 0 mm 2 m/s 688 mmHg 43%
    15:00 +28°C° 0 mm 2 m/s 688 mmHg 45%
    16:00 +28°C° 0 mm 2 m/s 688 mmHg 47%
    17:00 +26°C° 0,2 mm 2 m/s 688 mmHg 60%
    18:00 +23°C° 0,2 mm 2 m/s 688 mmHg 72%
    19:00 +21°C° 0,2 mm 1 m/s 687 mmHg 85%
    20:00 +20°C° 0 mm 1 m/s 688 mmHg 87%
    21:00 +19°C° 0 mm 1 m/s 688 mmHg 89%
    22:00 +18°C° 0 mm 1 m/s 688 mmHg 91%
    23:00 +18°C° 0 mm 1 m/s 688 mmHg 90%
    Arată mai mult